| time (UTC) | temp C | wind direction | speed KPH | gust KPH | rain 1hr cm | rain 24hr cm | rain mn cm | humidity % | barometer mb |
| 20260502220105 | 20 | 348 | 6.4 | 11.3 | 0.00 | 0.00 | 0.00 | 25 | 1017.9 |
| 20260502215602 | 20 | 355 | 0.0 | 8.0 | 0.00 | 0.00 | 0.00 | 31 | 1017.9 |
| 20260502215058 | 19 | 129 | 1.6 | 4.8 | 0.00 | 0.00 | 0.00 | 26 | 1018.0 |
| 20260502214555 | 19 | 64 | 3.2 | 9.7 | 0.00 | 0.00 | 0.00 | 27 | 1018.1 |
| 20260502214053 | 20 | 70 | 8.0 | 11.3 | 0.00 | 0.00 | 0.00 | 29 | 1018.2 |
| 20260502213550 | 20 | 301 | 0.0 | 1.6 | 0.00 | 0.00 | 0.00 | 27 | 1018.5 |
| 20260502213047 | 20 | 313 | 4.8 | 9.7 | 0.00 | 0.00 | 0.00 | 27 | 1018.4 |
| 20260502212546 | 20 | 359 | 6.4 | 9.7 | 0.00 | 0.00 | 0.00 | 27 | 1018.6 |
| 20260502212044 | 19 | 29 | 6.4 | 11.3 | 0.00 | 0.00 | 0.00 | 27 | 1019.0 |
| 20260502211539 | 18 | 24 | 4.8 | 11.3 | 0.00 | 0.00 | 0.00 | 28 | 1018.6 |
| 20260502211036 | 19 | 265 | 3.2 | 8.0 | 0.00 | 0.00 | 0.00 | 31 | 1018.7 |
| 20260502210533 | 19 | 18 | 4.8 | 8.0 | 0.00 | 0.00 | 0.00 | 30 | 1018.9 |
| 20260502210030 | 18 | 325 | 8.0 | 14.5 | 0.00 | 0.00 | 0.00 | 31 | 1018.9 |
| 20260502205527 | 18 | 3 | 6.4 | 12.9 | 0.00 | 0.00 | 0.00 | 31 | 1018.9 |
| 20260502205024 | 18 | 24 | 4.8 | 12.9 | 0.00 | 0.00 | 0.00 | 33 | 1018.8 |
| 20260502204521 | 18 | 343 | 6.4 | 11.3 | 0.00 | 0.00 | 0.00 | 31 | 1018.9 |
| 20260502204019 | 17 | 323 | 4.8 | 11.3 | 0.00 | 0.00 | 0.00 | 31 | 1018.9 |
| 20260502203515 | 18 | 4 | 6.4 | 11.3 | 0.00 | 0.00 | 0.00 | 30 | 1019.1 |
| 20260502203012 | 17 | 318 | 6.4 | 12.9 | 0.00 | 0.00 | 0.00 | 32 | 1019.0 |
| 20260502202508 | 17 | 288 | 8.0 | 12.9 | 0.00 | 0.00 | 0.00 | 30 | 1019.1 |
| 20260502202007 | 18 | 1 | 9.7 | 14.5 | 0.00 | 0.00 | 0.00 | 28 | 1019.1 |
| 20260502201503 | 18 | 26 | 8.0 | 12.9 | 0.00 | 0.00 | 0.00 | 28 | 1019.3 |
| 20260502200959 | 17 | 314 | 6.4 | 14.5 | 0.00 | 0.00 | 0.00 | 30 | 1019.4 |
| 20260502200455 | 18 | 338 | 6.4 | 12.9 | 0.00 | 0.00 | 0.00 | 28 | 1019.5 |
| 20260502195953 | 18 | 320 | 8.0 | 14.5 | 0.00 | 0.00 | 0.00 | 31 | 1019.6 |
| 20260502195450 | 18 | 17 | 8.0 | 14.5 | 0.00 | 0.00 | 0.00 | 31 | 1019.6 |
| 20260502194946 | 18 | 344 | 8.0 | 14.5 | 0.00 | 0.00 | 0.00 | 31 | 1019.6 |
| 20260502194443 | 18 | 43 | 8.0 | 11.3 | 0.00 | 0.00 | 0.00 | 33 | 1019.3 |
| 20260502193939 | 18 | 297 | 14.5 | 14.5 | 0.00 | 0.00 | 0.00 | 31 | 1019.6 |
| 20260502193437 | 18 | 333 | 11.3 | 14.5 | 0.00 | 0.00 | 0.00 | 30 | 1019.6 |
| 20260502192932 | 18 | 319 | 8.0 | 11.3 | 0.00 | 0.00 | 0.00 | 31 | 1019.6 |
| 20260502192429 | 17 | 321 | 9.7 | 11.3 | 0.00 | 0.00 | 0.00 | 30 | 1019.7 |
| 20260502191926 | 18 | 271 | 8.0 | 11.3 | 0.00 | 0.00 | 0.00 | 31 | 1019.8 |
| 20260502191424 | 17 | 71 | 3.2 | 9.7 | 0.00 | 0.00 | 0.00 | 31 | 1019.8 |
| 20260502190921 | 18 | 333 | 11.3 | 16.1 | 0.00 | 0.00 | 0.00 | 31 | 1019.9 |
| 20260502190418 | 17 | 318 | 1.6 | 4.8 | 0.00 | 0.00 | 0.00 | 36 | 1020.0 |
| 20260502185914 | 18 | 83 | 4.8 | 8.0 | 0.00 | 0.00 | 0.00 | 30 | 1020.3 |
| 20260502185410 | 17 | 315 | 4.8 | 8.0 | 0.00 | 0.00 | 0.00 | 35 | 1020.3 |
| 20260502184907 | 17 | 296 | 8.0 | 12.9 | 0.00 | 0.00 | 0.00 | 34 | 1020.5 |
| 20260502184403 | 17 | 0 | 6.4 | 16.1 | 0.00 | 0.00 | 0.00 | 33 | 1020.4 |
| 20260502183859 | 17 | 309 | 4.8 | 9.7 | 0.00 | 0.00 | 0.00 | 34 | 1020.5 |
| 20260502183355 | 17 | 351 | 3.2 | 11.3 | 0.00 | 0.00 | 0.00 | 35 | 1020.5 |
| 20260502182851 | 17 | 301 | 8.0 | 11.3 | 0.00 | 0.00 | 0.00 | 34 | 1020.4 |
| 20260502182347 | 17 | 10 | 6.4 | 9.7 | 0.00 | 0.00 | 0.00 | 35 | 1020.5 |
| 20260502181843 | 17 | 294 | 8.0 | 9.7 | 0.00 | 0.00 | 0.00 | 36 | 1020.5 |
| 20260502181342 | 16 | 336 | 6.4 | 12.9 | 0.00 | 0.00 | 0.00 | 37 | 1020.6 |
| 20260502180839 | 16 | 290 | 4.8 | 12.9 | 0.00 | 0.00 | 0.00 | 40 | 1020.9 |
| 20260502180336 | 16 | 339 | 4.8 | 9.7 | 0.00 | 0.00 | 0.00 | 36 | 1020.9 |
| 20260502170255 | 13 | 303 | 4.8 | 4.8 | 0.00 | 0.00 | 0.00 | 44 | 1021.6 |
| 20260502164243 | 13 | 281 | 6.4 | 8.0 | 0.00 | 0.00 | 0.00 | 43 | 1021.5 |
| 20260502163738 | 13 | 333 | 3.2 | 3.2 | 0.00 | 0.00 | 0.00 | 47 | 1021.5 |
| 20260502163235 | 13 | 317 | 4.8 | 11.3 | 0.00 | 0.00 | 0.00 | 44 | 1021.7 |
| 20260502162732 | 13 | 326 | 3.2 | 8.0 | 0.00 | 0.00 | 0.00 | 45 | 1021.7 |
| 20260502162229 | 13 | 294 | 8.0 | 11.3 | 0.00 | 0.00 | 0.00 | 45 | 1021.7 |
| 20260502161726 | 13 | 16 | 3.2 | 8.0 | 0.00 | 0.00 | 0.00 | 46 | 1021.6 |
| 20260502161222 | 13 | 41 | 6.4 | 8.0 | 0.00 | 0.00 | 0.00 | 45 | 1021.7 |
| 20260502160721 | 13 | 5 | 4.8 | 11.3 | 0.00 | 0.00 | 0.00 | 45 | 1022.0 |
| 20260502160219 | 12 | 19 | 3.2 | 9.7 | 0.00 | 0.00 | 0.00 | 45 | 1022.0 |
| 20260502152143 | 11 | 230 | 4.8 | 4.8 | 0.00 | 0.00 | 0.00 | 50 | 1022.2 |
| 20260502151641 | 10 | 257 | 4.8 | 8.0 | 0.00 | 0.00 | 0.00 | 49 | 1022.3 |
| 20260502151137 | 10 | 224 | 4.8 | 8.0 | 0.00 | 0.00 | 0.00 | 51 | 1022.4 |
| 20260502150635 | 10 | 227 | 3.2 | 8.0 | 0.00 | 0.00 | 0.00 | 51 | 1022.4 |
| 20260502150131 | 10 | 244 | 1.6 | 4.8 | 0.00 | 0.00 | 0.00 | 50 | 1022.5 |
| 20260502130520 | 4 | 206 | 0.0 | 0.0 | 0.00 | 0.00 | 0.00 | 61 | 1021.3 |
| 20260502123503 | 1 | 40 | 0.0 | 1.6 | 0.00 | 0.00 | 0.00 | 72 | 1021.3 |
| 20260502122959 | 1 | 305 | 1.6 | 1.6 | 0.00 | 0.00 | 0.00 | 71 | 1021.2 |
| 20260502122455 | 1 | 355 | 1.6 | 3.2 | 0.00 | 0.00 | 0.00 | 70 | 1020.9 |
| 20260502121954 | 2 | 351 | 3.2 | 4.8 | 0.00 | 0.00 | 0.00 | 69 | 1020.9 |
| 20260502121451 | 2 | 3 | 0.0 | 3.2 | 0.00 | 0.00 | 0.00 | 67 | 1021.3 |
| 20260502120948 | 2 | 350 | 0.0 | 0.0 | 0.00 | 0.00 | 0.00 | 67 | 1020.9 |
| 20260502120444 | 3 | 330 | 0.0 | 1.6 | 0.00 | 0.00 | 0.00 | 66 | 1020.9 |
| 20260502115439 | 3 | 104 | 1.6 | 3.2 | 0.00 | 0.00 | 0.00 | 68 | 1020.8 |
| 20260502114935 | 3 | 133 | 1.6 | 3.2 | 0.00 | 0.00 | 0.00 | 67 | 1020.6 |
| 20260502114432 | 2 | 112 | 3.2 | 3.2 | 0.00 | 0.00 | 0.00 | 71 | 1020.6 |
| 20260502113929 | 1 | 138 | 1.6 | 1.6 | 0.00 | 0.00 | 0.00 | 73 | 1021.2 |
| 20260502113426 | 1 | 160 | 0.0 | 0.0 | 0.00 | 0.00 | 0.00 | 72 | 1020.7 |
| 20260502112925 | 1 | 159 | 0.0 | 0.0 | 0.00 | 0.00 | 0.00 | 72 | 1020.7 |
| 20260502112422 | 2 | 159 | 0.0 | 1.6 | 0.00 | 0.00 | 0.00 | 72 | 1020.6 |
| 20260502111920 | 2 | 159 | 1.6 | 3.2 | 0.00 | 0.00 | 0.00 | 72 | 1020.6 |
| 20260502111416 | 2 | 230 | 1.6 | 1.6 | 0.00 | 0.00 | 0.00 | 70 | 1020.6 |
| 20260502110914 | 2 | 293 | 4.8 | 8.0 | 0.00 | 0.00 | 0.00 | 69 | 1020.6 |
| 20260502110412 | 3 | 295 | 3.2 | 3.2 | 0.00 | 0.00 | 0.00 | 63 | 1020.5 |
| 20260502105909 | 4 | 213 | 0.0 | 1.6 | 0.00 | 0.00 | 0.00 | 60 | 1020.4 |
| 20260502105406 | 5 | 76 | 1.6 | 3.2 | 0.00 | 0.00 | 0.00 | 59 | 1020.3 |
| 20260502104904 | 4 | 67 | 1.6 | 3.2 | 0.00 | 0.00 | 0.00 | 59 | 1020.4 |
| 20260502104401 | 3 | 79 | 1.6 | 3.2 | 0.00 | 0.00 | 0.00 | 61 | 1020.5 |
| 20260502103858 | 3 | 34 | 1.6 | 1.6 | 0.00 | 0.00 | 0.00 | 63 | 1020.6 |
| 20260502103355 | 3 | 46 | 1.6 | 1.6 | 0.00 | 0.00 | 0.00 | 61 | 1020.5 |
| 20260502102852 | 3 | 96 | 0.0 | 1.6 | 0.00 | 0.00 | 0.00 | 60 | 1020.4 |
| 20260502102349 | 4 | 96 | 0.0 | 0.0 | 0.00 | 0.00 | 0.00 | 59 | 1020.5 |
| 20260502101846 | 5 | 96 | 1.6 | 1.6 | 0.00 | 0.00 | 0.00 | 59 | 1020.3 |
| 20260502101344 | 4 | 96 | 1.6 | 1.6 | 0.00 | 0.00 | 0.00 | 60 | 1020.3 |
| 20260502100843 | 5 | 146 | 3.2 | 4.8 | 0.00 | 0.00 | 0.00 | 59 | 1020.2 |
| 20260502100342 | 5 | 169 | 1.6 | 3.2 | 0.00 | 0.00 | 0.00 | 59 | 1020.3 |
| 20260502091315 | 5 | 197 | 1.6 | 1.6 | 0.00 | 0.00 | 0.00 | 59 | 1019.8 |
| 20260502090813 | 5 | 236 | 1.6 | 1.6 | 0.00 | 0.00 | 0.00 | 58 | 1019.8 |
| 20260502090309 | 5 | 147 | 1.6 | 1.6 | 0.00 | 0.00 | 0.00 | 59 | 1019.8 |
| 20260502071204 | 8 | 246 | 4.8 | 4.8 | 0.00 | 0.00 | 0.00 | 49 | 1019.5 |
| 20260502070703 | 7 | 246 | 6.4 | 8.0 | 0.00 | 0.00 | 0.00 | 50 | 1019.6 |
| 20260502070200 | 7 | 229 | 6.4 | 8.0 | 0.00 | 0.00 | 0.00 | 52 | 1019.5 |
| 20260502065659 | 7 | 221 | 6.4 | 8.0 | 0.00 | 0.00 | 0.00 | 51 | 1019.6 |
| 20260502065155 | 7 | 246 | 4.8 | 8.0 | 0.00 | 0.00 | 0.00 | 52 | 1019.3 |
| 20260502064654 | 7 | 228 | 8.0 | 9.7 | 0.00 | 0.00 | 0.00 | 52 | 1019.5 |
| 20260502064151 | 7 | 217 | 8.0 | 9.7 | 0.00 | 0.00 | 0.00 | 52 | 1019.5 |
| 20260502063649 | 7 | 210 | 6.4 | 8.0 | 0.00 | 0.00 | 0.00 | 51 | 1019.4 |
| 20260502063147 | 8 | 203 | 3.2 | 4.8 | 0.00 | 0.00 | 0.00 | 49 | 1019.1 |
| 20260502062643 | 7 | 179 | 3.2 | 3.2 | 0.00 | 0.00 | 0.00 | 50 | 1019.4 |
| 20260502062141 | 7 | 303 | 0.0 | 1.6 | 0.00 | 0.00 | 0.00 | 50 | 1019.3 |
| 20260502061639 | 8 | 270 | 1.6 | 3.2 | 0.00 | 0.00 | 0.00 | 48 | 1019.5 |
| 20260502061137 | 8 | 312 | 1.6 | 3.2 | 0.00 | 0.00 | 0.00 | 47 | 1019.5 |
| 20260502060636 | 8 | 327 | 1.6 | 1.6 | 0.00 | 0.00 | 0.00 | 48 | 1019.5 |
| 20260502060133 | 8 | 295 | 0.0 | 1.6 | 0.00 | 0.00 | 0.00 | 48 | 1019.3 |
| 20260502055631 | 8 | 304 | 0.0 | 0.0 | 0.00 | 0.00 | 0.00 | 47 | 1019.0 |
| 20260502055129 | 9 | 193 | 1.6 | 3.2 | 0.00 | 0.00 | 0.00 | 46 | 1019.4 |
| 20260502054628 | 10 | 204 | 4.8 | 4.8 | 0.00 | 0.00 | 0.00 | 44 | 1019.3 |
| 20260502054125 | 10 | 184 | 3.2 | 3.2 | 0.00 | 0.00 | 0.00 | 44 | 1019.1 |
| 20260502053622 | 10 | 194 | 3.2 | 4.8 | 0.00 | 0.00 | 0.00 | 44 | 1019.1 |
| 20260502053119 | 10 | 194 | 3.2 | 3.2 | 0.00 | 0.00 | 0.00 | 42 | 1019.0 |
| 20260502052617 | 10 | 160 | 3.2 | 3.2 | 0.00 | 0.00 | 0.00 | 44 | 1018.9 |
| 20260502052115 | 10 | 221 | 1.6 | 3.2 | 0.00 | 0.00 | 0.00 | 43 | 1019.1 |
| 20260502051613 | 10 | 216 | 1.6 | 3.2 | 0.00 | 0.00 | 0.00 | 44 | 1018.9 |
| 20260502051111 | 10 | 145 | 1.6 | 1.6 | 0.00 | 0.00 | 0.00 | 45 | 1019.0 |
| 20260502050607 | 10 | 183 | 1.6 | 1.6 | 0.00 | 0.00 | 0.00 | 44 | 1019.1 |
| 20260502050104 | 10 | 231 | 1.6 | 3.2 | 0.00 | 0.00 | 0.00 | 43 | 1019.0 |
| 20260502045600 | 11 | 212 | 1.6 | 3.2 | 0.00 | 0.00 | 0.00 | 42 | 1018.8 |
| 20260502045057 | 11 | 206 | 3.2 | 3.2 | 0.00 | 0.00 | 0.00 | 42 | 1018.9 |
| 20260502044554 | 11 | 201 | 4.8 | 8.0 | 0.00 | 0.00 | 0.00 | 42 | 1019.0 |
| 20260502044051 | 10 | 211 | 3.2 | 4.8 | 0.00 | 0.00 | 0.00 | 42 | 1018.8 |
| 20260502043548 | 10 | 188 | 3.2 | 3.2 | 0.00 | 0.00 | 0.00 | 44 | 1019.0 |
| 20260502043045 | 10 | 203 | 1.6 | 1.6 | 0.00 | 0.00 | 0.00 | 44 | 1018.8 |
| 20260502042539 | 11 | 189 | 3.2 | 4.8 | 0.00 | 0.00 | 0.00 | 43 | 1018.7 |
| 20260502042037 | 11 | 210 | 4.8 | 8.0 | 0.00 | 0.00 | 0.00 | 41 | 1018.7 |
| 20260502041535 | 11 | 198 | 4.8 | 4.8 | 0.00 | 0.00 | 0.00 | 40 | 1018.9 |
| 20260502041032 | 11 | 177 | 1.6 | 3.2 | 0.00 | 0.00 | 0.00 | 40 | 1018.5 |
| 20260502040528 | 11 | 185 | 1.6 | 1.6 | 0.00 | 0.00 | 0.00 | 40 | 1018.9 |
| 20260502040025 | 11 | 128 | 1.6 | 1.6 | 0.00 | 0.00 | 0.00 | 40 | 1018.8 |
| 20260502035521 | 11 | 135 | 0.0 | 1.6 | 0.00 | 0.00 | 0.00 | 40 | 1018.8 |
| 20260502035019 | 11 | 171 | 3.2 | 3.2 | 0.00 | 0.00 | 0.00 | 39 | 1018.6 |
| 20260502034516 | 12 | 179 | 1.6 | 3.2 | 0.00 | 0.00 | 0.00 | 38 | 1018.5 |
| 20260502034015 | 12 | 162 | 1.6 | 3.2 | 0.00 | 0.00 | 0.00 | 38 | 1018.1 |
| 20260502033513 | 12 | 165 | 0.0 | 3.2 | 0.00 | 0.00 | 0.00 | 38 | 1018.4 |
| 20260502033010 | 13 | 110 | 4.8 | 4.8 | 0.00 | 0.00 | 0.00 | 37 | 1018.4 |
| 20260502032505 | 15 | 236 | 3.2 | 4.8 | 0.00 | 0.00 | 0.00 | 33 | 1018.0 |
| 20260502032002 | 15 | 120 | 6.4 | 11.3 | 0.00 | 0.00 | 0.00 | 30 | 1018.1 |
| 20260502031500 | 15 | 119 | 8.0 | 14.5 | 0.00 | 0.00 | 0.00 | 29 | 1018.2 |
| 20260502030958 | 15 | 158 | 9.7 | 11.3 | 0.00 | 0.00 | 0.00 | 30 | 1017.9 |
| 20260502030456 | 16 | 150 | 9.7 | 12.9 | 0.00 | 0.00 | 0.00 | 31 | 1018.0 |
| 20260502025954 | 15 | 148 | 9.7 | 12.9 | 0.00 | 0.00 | 0.00 | 30 | 1017.7 |
| 20260502025451 | 16 | 150 | 11.3 | 14.5 | 0.00 | 0.00 | 0.00 | 28 | 1017.9 |
| 20260502024949 | 16 | 137 | 9.7 | 14.5 | 0.00 | 0.00 | 0.00 | 30 | 1017.9 |
| 20260502024447 | 16 | 134 | 11.3 | 12.9 | 0.00 | 0.00 | 0.00 | 32 | 1017.6 |
| 20260502023945 | 16 | 157 | 11.3 | 12.9 | 0.00 | 0.00 | 0.00 | 30 | 1017.5 |
| 20260502023442 | 16 | 130 | 11.3 | 12.9 | 0.00 | 0.00 | 0.00 | 29 | 1017.8 |
| 20260502022939 | 16 | 150 | 8.0 | 12.9 | 0.00 | 0.00 | 0.00 | 32 | 1017.9 |
| 20260502022435 | 16 | 173 | 8.0 | 14.5 | 0.00 | 0.00 | 0.00 | 31 | 1017.5 |
| 20260502021932 | 16 | 155 | 9.7 | 16.1 | 0.00 | 0.00 | 0.00 | 32 | 1017.5 |
| 20260502021430 | 17 | 139 | 8.0 | 12.9 | 0.00 | 0.00 | 0.00 | 32 | 1017.7 |
| 20260502020927 | 17 | 147 | 11.3 | 11.3 | 0.00 | 0.00 | 0.00 | 32 | 1017.6 |
| 20260502020425 | 17 | 145 | 9.7 | 14.5 | 0.00 | 0.00 | 0.00 | 32 | 1017.7 |
| 20260502015921 | 17 | 141 | 11.3 | 12.9 | 0.00 | 0.00 | 0.00 | 34 | 1017.5 |
| 20260502015419 | 18 | 141 | 9.7 | 12.9 | 0.00 | 0.00 | 0.00 | 32 | 1017.5 |
| 20260502014915 | 18 | 146 | 8.0 | 14.5 | 0.00 | 0.00 | 0.00 | 31 | 1017.5 |
| 20260502014413 | 18 | 138 | 11.3 | 14.5 | 0.00 | 0.00 | 0.00 | 30 | 1017.7 |
| 20260502013909 | 18 | 154 | 9.7 | 12.9 | 0.00 | 0.00 | 0.00 | 30 | 1017.7 |
| 20260502013404 | 18 | 163 | 6.4 | 11.3 | 0.00 | 0.00 | 0.00 | 30 | 1017.8 |
| 20260502012901 | 19 | 148 | 8.0 | 12.9 | 0.00 | 0.00 | 0.00 | 29 | 1017.9 |
| 20260502012359 | 19 | 161 | 9.7 | 12.9 | 0.00 | 0.00 | 0.00 | 28 | 1017.8 |
| 20260502011856 | 20 | 146 | 11.3 | 16.1 | 0.00 | 0.00 | 0.00 | 26 | 1017.8 |
| 20260502011352 | 20 | 173 | 11.3 | 14.5 | 0.00 | 0.00 | 0.00 | 24 | 1017.8 |
| 20260502010849 | 20 | 173 | 11.3 | 16.1 | 0.00 | 0.00 | 0.00 | 25 | 1017.9 |
| 20260502010346 | 20 | 167 | 8.0 | 14.5 | 0.00 | 0.00 | 0.00 | 26 | 1017.7 |
| 20260502005843 | 20 | 133 | 11.3 | 16.1 | 0.00 | 0.00 | 0.00 | 24 | 1017.6 |
| 20260502005341 | 20 | 176 | 8.0 | 16.1 | 0.00 | 0.00 | 0.00 | 24 | 1017.9 |
| 20260502004838 | 20 | 163 | 8.0 | 17.7 | 0.00 | 0.00 | 0.00 | 24 | 1018.0 |
| 20260502004333 | 20 | 155 | 12.9 | 16.1 | 0.00 | 0.00 | 0.00 | 23 | 1017.9 |
| 20260502003832 | 20 | 130 | 12.9 | 14.5 | 0.00 | 0.00 | 0.00 | 23 | 1017.8 |
| 20260502003328 | 20 | 146 | 11.3 | 17.7 | 0.00 | 0.00 | 0.00 | 22 | 1018.1 |
| 20260502002825 | 20 | 146 | 11.3 | 16.1 | 0.00 | 0.00 | 0.00 | 20 | 1018.0 |
| 20260502002322 | 21 | 153 | 14.5 | 17.7 | 0.00 | 0.00 | 0.00 | 22 | 1018.0 |
| 20260502001819 | 21 | 144 | 11.3 | 17.7 | 0.00 | 0.00 | 0.00 | 21 | 1018.2 |
| 20260502001317 | 20 | 158 | 11.3 | 16.1 | 0.00 | 0.00 | 0.00 | 20 | 1018.0 |
| 20260502000814 | 21 | 146 | 14.5 | 17.7 | 0.00 | 0.00 | 0.00 | 20 | 1018.0 |
| 20260502000312 | 21 | 137 | 16.1 | 17.7 | 0.00 | 0.00 | 0.00 | 22 | 1018.1 |
| 20260501235808 | 21 | 145 | 11.3 | 16.1 | 0.00 | 0.00 | 0.00 | 19 | 1018.1 |
| 20260501235305 | 21 | 153 | 14.5 | 17.7 | 0.00 | 0.00 | 0.00 | 19 | 1018.2 |
| 20260501234759 | 21 | 148 | 11.3 | 16.1 | 0.00 | 0.00 | 0.00 | 22 | 1018.1 |
| 20260501234257 | 21 | 156 | 11.3 | 16.1 | 0.00 | 0.00 | 0.00 | 21 | 1018.1 |
| 20260501233755 | 21 | 133 | 6.4 | 16.1 | 0.00 | 0.00 | 0.00 | 21 | 1018.5 |
| 20260501233252 | 21 | 177 | 8.0 | 12.9 | 0.00 | 0.00 | 0.00 | 22 | 1018.4 |
| 20260501232748 | 21 | 140 | 11.3 | 16.1 | 0.00 | 0.00 | 0.00 | 20 | 1018.7 |
| 20260501232245 | 21 | 172 | 9.7 | 16.1 | 0.00 | 0.00 | 0.00 | 16 | 1018.4 |
| 20260501231743 | 21 | 189 | 6.4 | 17.7 | 0.00 | 0.00 | 0.00 | 22 | 1018.5 |
| 20260501231241 | 21 | 144 | 14.5 | 14.5 | 0.00 | 0.00 | 0.00 | 19 | 1018.7 |
| 20260501230739 | 21 | 136 | 11.3 | 12.9 | 0.00 | 0.00 | 0.00 | 19 | 1018.5 |
| 20260501230237 | 20 | 141 | 11.3 | 16.1 | 0.00 | 0.00 | 0.00 | 22 | 1018.5 |
| 20260501225735 | 21 | 153 | 16.1 | 17.7 | 0.00 | 0.00 | 0.00 | 18 | 1018.4 |
| 20260501225232 | 21 | 170 | 9.7 | 20.9 | 0.00 | 0.00 | 0.00 | 21 | 1018.6 |
| 20260501224728 | 20 | 158 | 11.3 | 12.9 | 0.00 | 0.00 | 0.00 | 20 | 1018.7 |
| 20260501224226 | 21 | 136 | 12.9 | 22.5 | 0.00 | 0.00 | 0.00 | 20 | 1018.9 |
| 20260501223721 | 21 | 171 | 8.0 | 11.3 | 0.00 | 0.00 | 0.00 | 21 | 1018.9 |
| 20260501223218 | 20 | 175 | 8.0 | 14.5 | 0.00 | 0.00 | 0.00 | 22 | 1018.8 |
| 20260501222714 | 20 | 141 | 8.0 | 12.9 | 0.00 | 0.00 | 0.00 | 22 | 1018.7 |
| 20260501222211 | 21 | 161 | 6.4 | 14.5 | 0.00 | 0.00 | 0.00 | 26 | 1018.9 |
| 20260501221708 | 20 | 127 | 12.9 | 14.5 | 0.00 | 0.00 | 0.00 | 23 | 1018.9 |
| 20260501221205 | 20 | 121 | 4.8 | 8.0 | 0.00 | 0.00 | 0.00 | 21 | 1018.9 |
| 20260501220703 | 20 | 130 | 8.0 | 16.1 | 0.00 | 0.00 | 0.00 | 19 | 1019.1 |